{"data":{"norad_id":60747,"epoch":"2026-05-25T04:12:59.011200Z","epoch_age_seconds":59551,"freshness":"FRESH","line1":"1 60747U 24153C   26145.17568300  .00023935  00000+0  59576-3 0  9993","line2":"2 60747  97.6743 286.4401 0008816 226.0044 134.0476 15.40227736 96601","mean_motion":15.40227736,"eccentricity":0.0008816,"inclination_deg":97.6743,"raan_deg":286.4401,"arg_perigee_deg":226.0044,"mean_anomaly_deg":134.0476,"bstar":0.00059576,"rev_number":9660,"period_min":93.492667762217,"perigee_km":439.42095631559,"apogee_km":451.45228132029,"semimajor_km":6823.5736188179,"source":"CELESTRAK","updated_at":"2026-05-25T13:38:02.200412Z"}}